Regional Weather Roundup
Issued by NWS Sterling, VA

Home | Current Version | Previous Version | Graphics & Text | Print | Product List | Glossary On
Versions: 1 2 3 4 5 6 7 8 9 10 11 12 13 14 15 16 17 18 19 20 21 22 23 24 25 26 27 28 29 30 31 32 33 34 35 36 37 38 39 40 41 42 43 44 45 46 47 48 49 50
000
ASUS41 KLWX 042110
RWRLWX

REGIONAL WEATHER ROUNDUP
NATIONAL WEATHER SERVICE BALTIMORE MD/WASHINGTON DC
500 PM EDT SAT JUL 04 2015

Note: "FAIR" indicates few or no clouds below 12,000 feet
with no significant weather and/or obstructions to visibility.
 TC=TEMPERATURE CELSIUS

 * =Non NWS site. Station does not report precipitation (e.g. rain,
    snow, etc.), thunder, or fog.

DCZ001-MDZ009-015-VAZ040>042-051-053>054-042200-
WASHINGTON METRO

CITY           SKY/WX    TMP DP  RH WIND       PRES   REMARKS
WASHINGTON NAT TSTM      73  70  88 CALM      29.92R
DULLES         CLOUDY    70  69  97 S3        29.92F
ANDREWS AFB    TSTM      73  72  94 NE6       29.91R FOG
FT BELVOIR     HVY RAIN  73  70  88 W8        29.92R
QUANTICO       PTSUNNY   80  71  74 SW16G23   29.90R
LEESBURG*      CLOUDY    73  73 100 NE3       29.94S
MANASSAS*      CLOUDY    72  70  94 N15G21      N/A
GAITHERSBURG*  MOSUNNY   73  70  88 CALM      29.96S

$$

MDZ006>007-011-014-042200-
BALTIMORE METRO

CITY           SKY/WX    TMP DP  RH WIND       PRES   REMARKS
BWI AIRPORT    LGT RAIN  72  68  88 E7        29.91S
MD SCIENCE CTR   N/A     74  67  78 MISG      29.92S
MARTIN STATE   PTSUNNY   73  72  94 CALM      29.94S
ANNAPOLIS      PTSUNNY   76  68  76 NE5       29.91S
FORT MEADE*    CLOUDY    72  68  88 E5        29.94S

$$

MDZ012-015-019>023-042200-
MARYLAND EASTERN SHORE

CITY           SKY/WX    TMP DP  RH WIND       PRES   REMARKS
OCEAN CITY     PTSUNNY   74  68  81 E8        29.92R
SALISBURY      CLOUDY    75  70  84 E6        29.92R
BAY BRIDGE AP*   N/A     77  68  73 NE6       29.91S
EASTON*        PTSUNNY   82  72  69 E6        29.94F

$$

MDZ017>025-042200-
SOUTHERN MARYLAND

CITY           SKY/WX    TMP DP  RH WIND       PRES   REMARKS
PATUXENT RIVER PTSUNNY   79  70  74 E6        29.90S
ST INIGOES     NOT AVBL
LEONARDTOWN*   PTSUNNY   77  68  73 E6        29.92S

$$

MDZ003>005-042200-
NORTH CENTRAL MARYLAND

CITY           SKY/WX    TMP DP  RH WIND       PRES   REMARKS
FREDERICK*     MOSUNNY   79  73  83 N5        29.96R
HAGERSTOWN APT PTSUNNY   74  66  76 NE10      29.95R
WESTMINSTER*   CLOUDY    70  68  94 E3        29.95S

$$

MDZ501>502-042200-
WESTERN MARYLAND

CITY           SKY/WX    TMP DP  RH WIND       PRES   REMARKS
OAKLAND*       MOSUNNY   70 N/A N/A NW3       30.04F
CUMBERLAND*    MOSUNNY   82  61  47 NW3       29.95F

$$

VAZ025>031-042200-
SHENANDOAH VALLEY

CITY           SKY/WX    TMP DP  RH WIND       PRES   REMARKS
WINCHESTER*    PTSUNNY   79  72  78 SE5       29.93R
FRONT ROYAL*   FAIR      79  72  78 CALM      29.91S
LURAY*         FAIR      82  72  69 CALM      29.92F
NEW MARKET*    FAIR      82  65  56 W3        29.90F
STAUNTON*      CLOUDY    83  65  53 W3        29.96S
WAYNESBORO*    FAIR      78  67  70 W7        29.96S

$$

WVZ021-048>050-054>055-042200-
EASTERN WEST VIRGINIA PANHANDLE

CITY           SKY/WX    TMP DP  RH WIND       PRES   REMARKS
MARTINSBURG    CLOUDY    78  69  73 E8        29.93S
PETERSBURG*    MOSUNNY   80  57  45 NW12      29.94F

$$

VAZ036>039-050-042200-
CENTRAL FOOTHILLS

CITY           SKY/WX    TMP DP  RH WIND       PRES   REMARKS
CHARLOTTESVILL PTSUNNY   77  67  71 NE10      29.91R
CULPEPER*      LGT RAIN  76  72  87 NW3       29.93R
ORANGE*        LGT RAIN  72  70  94 SE8       29.93F
GORDONSVILLE*  CLOUDY    70  68  94 CALM      29.92S FOG
WARRENTON*     LGT RAIN  76  73  91 CALM      29.92R

$$

VAZ055>057-042200-
NORTH AND CENTRAL PIEDMONT

CITY           SKY/WX    TMP DP  RH WIND       PRES   REMARKS
FREDERICKSBRG* HVY RAIN  83  72  69 NW5       29.89R
STAFFORD*      HVY RAIN  78  72  82 N5        29.94R

$$

NCZ024-NYZ072-PAZ021-071-VAZ022-071-042200-
OTHER REGIONAL OBSERVATIONS

CITY           SKY/WX    TMP DP  RH WIND       PRES   REMARKS
NEW YORK CITY  MOSUNNY   74  58  57 VRB3      29.97S
PHILADELPHIA   CLOUDY    75  60  59 NE5       29.94R
PITTSBURGH     MOSUNNY   80  55  42 NW15      29.98R
ROANOKE        PTSUNNY   80  67  64 W13       29.99S
RICHMOND       PTSUNNY   85  72  65 W6        29.90F HX  91
RALEIGH        PTSUNNY   86  72  62 SW10      29.95F HX  92

$$

ANZ530>537-042200-
MARINE OBSERVATIONS

STATION/POSITION TIME  TEMP    WIND        PRES
                       AIR SEA DIR/SP/G
                 (UTC) (F)     (DEG/KT/KT) (MB)
THOMAS PT LIGHT  2000   75 77   40/  5/  6 1013.3F
BALT KEY BRIDGE  2000   73      70/  7/  9 1013.0S
COVE POINT       2000   77      30/  5/  8 1013.2F
LEWISETTA        2000   76 80  120/  8/  9 1012.3F
SOLOMONS ISLAND  2000      80                N/A
PINEY POINT      2000          160/  8/  9   N/A

$$



USA.gov is the U.S. government's official web portal to all federal, state and local government web resources and services.